Regional Weather Roundup
Issued by NWS Newport/Morehead, NC

Current Version | Previous Version | Graphics & Text | Print | Product List | Glossary On
Versions: 1 2 3 4 5 6 7 8 9 10 11 12 13 14 15 16 17 18 19 20 21 22 23 24 25 26 27 28 29 30 31 32 33 34 35 36 37 38 39 40 41 42 43 44 45 46 47 48 49 50
000 ASUS42 KMHX 161924 RWRMHX WEATHER ROUNDUP FOR EASTERN NORTH CAROLINA NATIONAL WEATHER SERVICE NEWPORT/MOREHEAD CITY NC 200 PM EST MON JAN 16 2017 NOTE: "FAIR" INDICATES FEW OR NO CLOUDS BELOW 12,000 FEET WITH NO SIGNIFICANT WEATHER AND/OR OBSTRUCTIONS TO VISIBILITY NCZ015>017-031-032-045>047-102-103-162000- NORTH COAST CITY SKY/WX TMP DP RH WIND PRES REMARKS EDENTON CLOUDY 47 38 70 CALM 30.41F ELIZABETH CITY CLOUDY 46 38 73 NE7 30.40F KITTY HAWK NOT AVBL MANTEO CLOUDY 47 40 77 NE8 30.39F $$ NCZ045>047-081-094-103-104-162000- CENTRAL COAST CITY SKY/WX TMP DP RH WIND PRES REMARKS FRISCO CLOUDY 50 43 77 N9G17 30.37F $$ NCZ095-097-098-100-101-162000- SOUTHERN COAST CITY SKY/WX TMP DP RH WIND PRES REMARKS BEAUFORT CLOUDY 54 44 69 NE9 30.37F CEDAR ISLAND NOT AVBL JACKSONVILLE NOT AVBL PINEY ISLAND CLOUDY N/A N/A N/A N9 30.37F WILMINGTON CLOUDY 56 45 66 VRB3 30.36F $$ NCZ011>013-027>030-043-044-078>080-089-090>093-098-162000- COASTAL PLAIN CITY SKY/WX TMP DP RH WIND PRES REMARKS AHOSKIE N/A 42 37 81 CALM 30.41F CLINTON CLOUDY 51 43 72 E3 30.37F ELIZABETHTOWN MOSUNNY 53 44 71 CALM 30.36F GOLDSBORO CLOUDY 51 38 59 N5 30.36F GREENVILLE CLOUDY 50 37 62 CALM 30.39F HAVELOCK CLOUDY 53 42 66 N6 30.38F KENANSVILLE CLOUDY 52 39 62 NE3 30.37F KINSTON CLOUDY 52 37 58 NE5 30.38F NEW BERN CLOUDY 53 41 63 NE5 30.39F RICHLANDS CLOUDY 54 42 64 NE7 30.37F ROCKY MOUNT CLOUDY 49 37 63 E3 30.39F WASHINGTON CLOUDY 50 42 72 NE5 30.39F WHITEVILLE CLOUDY 55 46 72 N3 30.34F $$ AMZ130-135-150-152-154-156-158-170-250-252-270-ANZ085-086-088-633-658-670-162000- MARINE OBSERVATIONS STATION/POSITION TIME TEMP WIND PRES WAVE SWELL AIR SEA DIR/SP/G HT/PER HT/PER (UTC) (F) (DEG/KT/KT) (MB) (FT/S) (FT/S) CHESAPEAKE LIGHT NOT AVBL 64 E VA BEACH 1850 51 58 30/ 10/ 12 1028.7 4/ 8 3/ 8 DUCK 1854 44 44 350/ 9/ 11 1028.5 2 E DUCK 1900 44 N/A 3/ 8 OREGON INLET 1848 47 48 360/ 10/ 13 1028.7 13E OREGON INLT NOT AVBL HATTERAS CG 1854 47 53 10/ 14/ 16 1027.8 DIAMOND BUOY 1850 54 74 10/ 17/ 19 1027.6 4/ 8 3/ 8 CAPE LOOKOUT 1900 52 10/ 12/ 14 1027.9 BEAUFORT LAB 1854 53 49 40/ 9/ 12 1027.4 30 SE NEW RVR IN 1908 54 63 50/ 14/ 17 1027.5 30 SE NEW RVR IN 1843 63 N/A 4/ 9 2/11 27 SE WRIGHTSVLE 1908 58 69 50/ 14/ 19 1027.0 5 SE WRIGHTSVLE NOT AVBL 225 S CAPE HAT 1850 69 72 110/ 6/ 8 1026.1 4/ 8 3/ 8 41 SE CHARLESTON 1850 66 71 30/ 17/ 19 1025.1 4/ 5 2/ 9 $$

USA.gov is the U.S. government's official web portal to all federal, state and local government web resources and services.